Tracking 28908 objects as of 21-May-2024
HD Live streaming from Space Station
objects crossing your sky now

STARLINK-6310

Track STARLINK-6310 now!
10-day predictions
STARLINK-6310 is classified as:


NORAD ID: 56533
Int'l Code: 2023-065AG
Perigee: 565.2 km
Apogee: 567.1 km
Inclination: 43.0 °
Period: 95.8 minutes
Semi major axis: 6937 km
RCS: Unknown
Launch date: May 14, 2023
Source: United States (US)
Launch site: AIR FORCE EASTERN TEST RANGE (AFETR)
Your satellite tracking list
Your tracking list is empty




NASA's NSSDC Master Catalog

Two Line Element Set (TLE):
1 56533U 23065AG  24141.49874216  .00010433  00000-0  78597-3 0  9991
2 56533  43.0023 173.9297 0001377 266.6208  93.4477 15.02549314 57765
Source of the keplerian elements: AFSPC